Weather History for Pellston, MI

Change the Weather History Date:

Saturday, December 8, 2012

  Actual Average Record
Temperature  
Mean Temperature 30 °F -  
Max Temperature 33 °F 32 °F 48 °F (1966)
Min Temperature 26 °F 17 °F -9 °F (1964)
Degree Days  
Heating Degree Days 34    
Moisture  
Dew Point 25 °F    
Average Humidity 80    
Maximum Humidity 100    
Minimum Humidity 59    
Precipitation  
Precipitation 0.00 in - - ()
Sea Level Pressure  
Sea Level Pressure 30.04 in    
Wind  
Wind Speed 2 mph (NNW)    
Max Wind Speed 14 mph    
Max Gust Speed -    
Visibility 8 miles    
Events Snow    
Averages and records for this station are not official NWS values.
T = Trace of Precipitation, MM = Missing Value Source: NWS Daily Summary

Daily Weather History Graph

Daily Weather History Graph

Search for Another Location

Airport:

Trip Planner

Search our weather history database for the weather conditions in past years. The results will help you decide how hot, cold, wet, or windy it might be!

Date:

Astronomy

Dec. 08, 2012 Rise Set
Actual Time 8:07 AM EST 4:55 PM EST
Civil Twilight 7:33 AM EST 5:29 PM EST
Nautical Twilight 6:55 AM EST 6:06 PM EST
Astronomical Twilight 6:19 AM EST 6:42 PM EST
Moon 2:17 AM EST (12/8) 1:36 PM EST (12/8)
Length of Visible Light 9h 56m
Length of Day
8h 48m
Waning Crescent, 28% of the Moon is Illuminated
Dec 8
Waning Crescent
Dec 13
New
Dec 20
First Quarter
Dec 28
Full
Jan 4
Last Quarter

Hourly Weather History & Observations

Time (EST) Temp. Windchill Dew Point Humidity Pressure Visibility Wind Dir Wind Speed Gust Speed Precip Events Conditions
12:54 AM 30.0 °F - 23.0 °F 75% 30.03 in 10.0 mi Calm Calm - N/A   Overcast
1:54 AM 30.9 °F - 24.1 °F 76% 30.01 in 10.0 mi Calm Calm - N/A   Overcast
2:54 AM 30.0 °F 25.2 °F 24.1 °F 79% 30.01 in 10.0 mi NW 4.6 mph - N/A   Overcast
3:54 AM 30.9 °F 27.5 °F 25.0 °F 79% 30.00 in 9.0 mi NE 3.5 mph - 0.00 in   Overcast
4:54 AM 30.0 °F - 25.0 °F 82% 29.99 in 3.0 mi Calm Calm - 0.00 in Snow Light Snow
5:01 AM 30.2 °F - 24.8 °F 80% 29.96 in 2.5 mi Calm Calm - 0.00 in Snow Light Snow
5:09 AM 30.2 °F - 24.8 °F 80% 29.96 in 3.0 mi Calm Calm - 0.00 in Snow Light Snow
5:33 AM 28.4 °F - 24.8 °F 86% 29.96 in 6.0 mi Calm Calm - 0.00 in   Overcast
6:15 AM 28.4 °F - 24.8 °F 86% 29.96 in 10.0 mi Calm Calm - N/A   Overcast
6:33 AM 28.4 °F - 26.6 °F 93% 29.96 in 10.0 mi Calm Calm - N/A   Overcast
6:54 AM 28.9 °F - 26.1 °F 89% 30.00 in 10.0 mi Calm Calm - N/A   Overcast
7:02 AM 28.4 °F - 26.6 °F 93% 29.97 in 7.0 mi Calm Calm - 0.00 in Snow Light Snow
7:08 AM 28.4 °F - 26.6 °F 93% 29.97 in 4.0 mi Calm Calm - 0.00 in Snow Light Snow
7:31 AM 28.4 °F 24.6 °F 26.6 °F 93% 29.97 in 5.0 mi North 3.5 mph - 0.00 in Snow Light Snow
7:54 AM 28.9 °F - 26.1 °F 89% 30.01 in 7.0 mi Calm Calm - 0.00 in   Overcast
8:20 AM 28.4 °F - 26.6 °F 93% 29.99 in 7.0 mi Calm Calm - N/A   Overcast
8:35 AM 28.4 °F - 26.6 °F 93% 29.99 in 1.8 mi Calm Calm - 0.00 in Snow Light Snow
8:47 AM 28.4 °F - 26.6 °F 93% 29.99 in 2.0 mi Calm Calm - 0.00 in Snow Light Snow
8:54 AM 28.9 °F - 27.0 °F 92% 30.02 in 2.5 mi Calm Calm - 0.00 in Snow Light Snow
9:01 AM 28.4 °F - 26.6 °F 93% 29.99 in 4.0 mi Calm Calm - 0.00 in Snow Light Snow
9:15 AM 28.4 °F - 26.6 °F 93% 29.99 in 2.5 mi Calm Calm - 0.00 in Snow Light Snow
9:22 AM 28.4 °F - 26.6 °F 93% 29.99 in 3.0 mi Calm Calm - 0.00 in Snow Light Snow
9:39 AM 28.4 °F - 28.4 °F 100% 29.99 in 4.0 mi Calm Calm - 0.00 in Snow Light Snow
9:54 AM 30.0 °F - 28.9 °F 96% 30.02 in 9.0 mi Calm Calm - 0.00 in   Overcast
10:14 AM 30.2 °F - 28.4 °F 93% 30.00 in 10.0 mi Calm Calm - N/A   Overcast
10:23 AM 30.2 °F - 28.4 °F 93% 30.00 in 10.0 mi Calm Calm - N/A   Overcast
10:54 AM 30.9 °F 27.5 °F 27.0 °F 85% 30.04 in 10.0 mi NNW 3.5 mph - N/A   Overcast
11:27 AM 33.8 °F 26.4 °F 26.6 °F 75% 30.00 in 10.0 mi NNW 9.2 mph - N/A   Overcast
12:54 PM 33.1 °F 25.5 °F 26.1 °F 75% 30.03 in 10.0 mi NW 9.2 mph - N/A   Overcast
1:09 PM 33.8 °F 24.3 °F 24.8 °F 70% 30.00 in 10.0 mi NW 13.8 mph - N/A   Overcast
1:36 PM 33.8 °F 25.3 °F 24.8 °F 70% 30.00 in 10.0 mi NW 11.5 mph - N/A   Overcast
1:54 PM 33.1 °F 24.9 °F 24.1 °F 70% 30.03 in 10.0 mi NW 10.4 mph - N/A   Overcast
2:17 PM 33.8 °F 25.3 °F 24.8 °F 70% 30.01 in 10.0 mi NNW 11.5 mph - N/A   Overcast
2:54 PM 33.1 °F 24.4 °F 24.1 °F 70% 30.05 in 10.0 mi NNW 11.5 mph - N/A   Overcast
3:11 PM 33.8 °F 25.3 °F 24.8 °F 70% 30.03 in 10.0 mi NW 11.5 mph - N/A   Overcast
3:54 PM 32.0 °F 23.0 °F 21.9 °F 66% 30.08 in 10.0 mi NW 11.5 mph - N/A   Overcast
4:54 PM 32.0 °F 23.6 °F 21.9 °F 66% 30.09 in 10.0 mi NNW 10.4 mph - N/A   Overcast
6:54 PM 32.0 °F 25.6 °F 19.0 °F 59% 30.17 in 10.0 mi WNW 6.9 mph - N/A   Overcast
7:54 PM 30.9 °F 21.7 °F 19.0 °F 61% 30.18 in 10.0 mi NW 11.5 mph - N/A   Overcast
8:54 PM 30.9 °F 27.5 °F 18.0 °F 59% 30.19 in 10.0 mi NW 3.5 mph - N/A   Overcast
9:54 PM 30.9 °F 27.5 °F 19.0 °F 61% 30.20 in 10.0 mi NW 3.5 mph - N/A   Overcast
10:54 PM 30.9 °F 25.2 °F 19.9 °F 64% 30.20 in 10.0 mi North 5.8 mph - N/A   Overcast
11:02 PM 30.2 °F 25.4 °F 19.4 °F 64% 30.17 in 10.0 mi NNW 4.6 mph - N/A   Overcast
11:14 PM 30.2 °F 25.4 °F 19.4 °F 64% 30.17 in 10.0 mi North 4.6 mph - N/A   Overcast
11:54 PM 26.1 °F 20.5 °F 19.0 °F 75% 30.21 in 10.0 mi North 4.6 mph - N/A   Clear